Mumbai, India

4:18 PM IST on January 24, 2017 (GMT +0530)
Chhatrapati Shivaji International

Weather History for VABB - November, 2012

Change the Weather History Date:

Thursday, November 8, 2012

  Actual Average Record
Temperature  
Mean Temperature 79 °F -  
Max Temperature 92 °F 89 °F 98 °F (1997)
Min Temperature 66 °F 71 °F 62 °F (2016)
Cooling Degree Days 14    
Growing Degree Days 29 (Base 50)    
Moisture  
Dew Point 66 °F    
Average Humidity 61    
Maximum Humidity 87    
Minimum Humidity 31    
Precipitation  
Precipitation 0.00 in - - ()
Sea Level Pressure  
Sea Level Pressure 29.81 in    
Wind  
Wind Speed 3 mph ()    
Max Wind Speed 12 mph    
Max Gust Speed 21 mph    
Visibility 1.7 miles    
Events      
Averages and records for this station are not official NWS values.
T = Trace of Precipitation, MM = Missing Value Source: Averaged Metar Reports

Daily Weather History Graph

Daily Weather History Graph

Search for Another Location

Airport or City:

Trip Planner

Search our weather history database for the weather conditions in past years. The results will help you decide how hot, cold, wet, or windy it might be!

Date:

Astronomy

Nov. 08, 2012 Rise Set
Actual Time 6:42 AM IST 6:02 PM IST
Civil Twilight 6:19 AM IST 6:24 PM IST
Nautical Twilight 5:53 AM IST 6:51 PM IST
Astronomical Twilight 5:27 AM IST 7:17 PM IST
Moon 1:00 AM IST (11/8) 1:43 PM IST (11/8)
Length of Visible Light 12h 05m
Length of Day
11h 19m
Last Quarter, 37% of the Moon is Illuminated
Nov 8
Last Quarter
Nov 14
New
Nov 20
First Quarter
Nov 28
Full
Dec 6
Last Quarter

Hourly Weather History & Observations

Time (IST) Temp. Heat Index Dew Point Humidity Pressure Visibility Wind Dir Wind Speed Gust Speed Precip Events Conditions
12:10 AM 78.8 °F - 66.2 °F 65% 29.83 in 1.6 mi Calm Calm - N/A   Smoke
12:40 AM 80.6 °F 81.8 °F 62.6 °F 54% 29.83 in 1.4 mi Calm Calm - N/A   Smoke
1:10 AM 77.0 °F - 66.2 °F 69% 29.80 in 1.4 mi Calm Calm - N/A   Smoke
1:40 AM 78.8 °F - 66.2 °F 65% 29.80 in 1.4 mi ENE 3.5 mph - N/A   Smoke
2:10 AM 78.8 °F - 66.2 °F 65% 29.80 in 1.3 mi SSE 3.5 mph - N/A   Smoke
2:40 AM 78.8 °F - 64.4 °F 61% 29.80 in 1.3 mi ESE 4.6 mph - N/A   Smoke
3:10 AM 77.0 °F - 64.4 °F 65% 29.77 in 1.4 mi SE 3.5 mph - N/A   Smoke
3:40 AM 77.0 °F - 66.2 °F 69% 29.77 in 1.4 mi Calm Calm - N/A   Smoke
4:10 AM 75.2 °F - 66.2 °F 73% 29.77 in 1.4 mi Calm Calm - N/A   Smoke
4:40 AM 75.2 °F - 64.4 °F 69% 29.77 in 1.4 mi Calm Calm - N/A   Smoke
5:10 AM 77.0 °F - 64.4 °F 65% 29.77 in 1.4 mi Calm Calm - N/A   Smoke
5:30 AM 67 °F - 64 °F 87% 29.78 in 1 mi Calm Calm - -   Haze
5:40 AM 75.2 °F - 64.4 °F 69% 29.80 in 1.4 mi Calm Calm - N/A   Smoke
6:10 AM 75.2 °F - 64.4 °F 69% 29.80 in 1.4 mi East 3.5 mph - N/A   Smoke
6:40 AM 75.2 °F - 64.4 °F 69% 29.80 in 1.1 mi East 4.6 mph - N/A   Smoke
7:10 AM 75.2 °F - 64.4 °F 69% 29.83 in 1.1 mi Variable 3.5 mph - N/A   Smoke
7:40 AM 75.2 °F - 64.4 °F 69% 29.83 in 1.1 mi ENE 3.5 mph - N/A   Smoke
8:10 AM 77.0 °F - 64.4 °F 65% 29.83 in 1.1 mi ESE 4.6 mph - N/A   Smoke
8:30 AM 73 °F - 67 °F 75% 29.85 in 1 mi Calm Calm - -   Haze
8:40 AM 80.6 °F 82.7 °F 66.2 °F 61% 29.86 in 1.1 mi ESE 3.5 mph - N/A   Smoke
9:10 AM 80.6 °F 82.3 °F 64.4 °F 58% 29.86 in 1.1 mi SSE 3.5 mph - N/A   Smoke
9:40 AM 84.2 °F 85.6 °F 64.4 °F 51% 29.86 in 1.4 mi South 4.6 mph - N/A   Smoke
10:10 AM 84.2 °F 85.6 °F 64.4 °F 51% 29.86 in 1.6 mi SE 3.5 mph - N/A   Smoke
11:10 AM 89.6 °F 89.5 °F 60.8 °F 38% 29.86 in 1.7 mi Variable 3.5 mph - N/A   Smoke
11:40 AM 87.8 °F 91.4 °F 68.0 °F 52% 29.83 in 1.7 mi SW 9.2 mph - N/A   Smoke
12:40 PM 89.6 °F 93.4 °F 68.0 °F 49% 29.80 in 1.9 mi West 8.1 mph - N/A   Smoke
1:10 PM 89.6 °F 91.1 °F 64.4 °F 43% 29.80 in 1.9 mi SSW 6.9 mph - N/A   Smoke
1:40 PM 89.6 °F 91.1 °F 64.4 °F 43% 29.77 in 2.5 mi WSW 9.2 mph - N/A   Smoke
2:10 PM 91.4 °F 92.1 °F 62.6 °F 38% 29.77 in 2.5 mi SW 9.2 mph 20.7 mph N/A   Smoke
2:40 PM 91.4 °F 89.9 °F 57.2 °F 31% 29.77 in 2.5 mi SW 9.2 mph - N/A   Smoke
3:40 PM 89.6 °F 92.2 °F 66.2 °F 46% 29.74 in 3.1 mi WSW 11.5 mph - N/A   Smoke
4:10 PM 87.8 °F 90.4 °F 66.2 °F 49% 29.74 in 3.1 mi SW 10.4 mph - N/A   Smoke
4:40 PM 87.8 °F 90.4 °F 66.2 °F 49% 29.77 in 3.1 mi WSW 10.4 mph - N/A   Smoke
5:10 PM 84.2 °F 86.6 °F 66.2 °F 55% 29.77 in 2.8 mi West 10.4 mph - N/A   Smoke
5:30 PM 85 °F - 68 °F 47% 29.77 in 1 mi West 4.6 mph - -   Smoke
5:40 PM 84.2 °F 87.3 °F 68.0 °F 58% 29.77 in 2.5 mi West 8.1 mph - N/A   Smoke
6:10 PM 82.4 °F 86.3 °F 69.8 °F 66% 29.77 in 2.2 mi West 6.9 mph - N/A   Smoke
7:10 PM 82.4 °F 86.3 °F 69.8 °F 66% 29.80 in 1.9 mi WNW 5.8 mph - N/A   Smoke
7:40 PM 82.4 °F 86.3 °F 69.8 °F 66% 29.80 in 2.2 mi NW 4.6 mph - N/A   Haze
8:10 PM 82.4 °F 86.3 °F 69.8 °F 66% 29.83 in 2.2 mi WNW 4.6 mph - N/A   Haze
8:40 PM 80.6 °F 83.2 °F 68.0 °F 65% 29.83 in 2.2 mi WNW 4.6 mph - N/A   Haze
9:10 PM 80.6 °F 83.2 °F 68.0 °F 65% 29.83 in 2.2 mi WNW 3.5 mph - N/A   Smoke
9:40 PM 80.6 °F 83.9 °F 69.8 °F 70% 29.83 in 2.2 mi NNW 3.5 mph - N/A   Smoke
10:10 PM 80.6 °F 83.9 °F 69.8 °F 70% 29.86 in - WNW 3.5 mph - N/A   Smoke
10:40 PM 78.8 °F - 69.8 °F 74% 29.86 in - NNW 3.5 mph - N/A   Smoke
11:30 PM 70 °F - 66 °F 84% 29.85 in 1 mi Calm Calm - -   Haze
11:40 PM 78.8 °F - 69.8 °F 74% 29.86 in 1.7 mi Calm Calm - N/A   Smoke